LU1MQF-13 Weather Reports


time (UTC)temp
F
wind
direction
speed
knots
gust
knots
rain 1hr
in
rain 24hr
in
rain mn
in
humidity
%
barometer
mb
20260507051212 64 0 0.0 0.0 0.00 0.00 0.00 33 934.3
20260507045712 64 0 0.0 0.0 0.00 0.00 0.00 33 933.9
20260507044212 64 0 0.0 0.0 0.00 0.00 0.00 34 933.6
20260507042712 64 0 0.0 0.0 0.00 0.00 0.00 35 933.1
20260507041212 64 0 0.0 0.0 0.00 0.00 0.00 37 932.9
20260507035711 66 0 0.0 0.0 0.00 0.00 0.00 40 932.7
20260507034211 64 0 0.0 0.0 0.00 0.00 0.00 34 932.0
20260507032712 64 0 0.0 0.0 0.00 0.00 0.00 34 932.1
20260507031211 63 0 0.0 0.0 0.00 0.00 0.00 35 932.1
20260507025712 63 0 0.0 0.0 0.00 0.00 0.00 36 932.0
20260507024212 64 0 0.0 0.0 0.00 0.00 0.00 37 931.9
20260507022711 64 0 0.0 0.0 0.00 0.00 0.00 39 931.9
20260507021212 64 0 0.0 0.0 0.00 0.00 0.00 41 932.1
20260507015712 64 0 0.0 0.0 0.00 0.00 0.00 46 932.4
20260507014211 64 0 0.0 0.0 0.00 0.00 0.00 40 931.9
20260507012712 64 0 0.0 0.0 0.00 0.00 0.00 41 931.6
20260507011211 64 0 0.0 0.0 0.00 0.00 0.00 42 931.3
20260507005711 66 0 0.0 0.0 0.00 0.00 0.00 43 931.2
20260507004212 66 0 0.0 0.0 0.00 0.00 0.00 44 930.9
20260507002711 66 0 0.0 0.0 0.00 0.00 0.00 44 931.0
20260507001212 68 0 0.0 0.0 0.00 0.00 0.00 50 931.1
20260506235712 66 0 0.0 0.0 0.00 0.00 0.00 50 931.1
20260506234211 66 0 0.0 0.0 0.00 0.00 0.00 50 931.1
20260506232712 66 0 0.0 0.0 0.00 0.00 0.00 49 931.4
20260506231211 66 0 0.0 0.0 0.00 0.00 0.00 39 931.2
20260506225711 66 0 0.0 0.0 0.00 0.00 0.00 39 931.7
20260506224212 66 0 0.0 0.0 0.00 0.00 0.00 39 931.2
20260506222711 66 0 0.0 0.0 0.00 0.00 0.00 38 931.0
20260506221211 66 0 0.0 0.0 0.00 0.00 0.00 39 930.9
20260506215711 66 0 0.0 0.0 0.00 0.00 0.00 39 930.7
20260506214210 68 0 0.0 0.0 0.00 0.00 0.00 39 930.7
20260506212711 68 0 0.0 0.0 0.00 0.00 0.00 39 930.3
20260506211211 70 0 0.0 0.0 0.00 0.00 0.00 38 930.6
20260506205711 70 0 0.0 0.0 0.00 0.00 0.00 37 930.7
20260506204211 70 0 0.0 0.0 0.00 0.00 0.00 37 930.4
20260506202711 70 0 0.0 0.0 0.00 0.00 0.00 35 929.6
20260506201211 72 0 0.0 0.0 0.00 0.00 0.00 33 928.8
20260506195711 72 0 0.0 0.0 0.00 0.00 0.00 33 929.0
20260506194211 72 0 0.0 0.0 0.00 0.00 0.00 30 929.7
20260506192711 72 0 0.0 0.0 0.00 0.00 0.00 29 929.4
20260506191211 73 0 0.0 0.0 0.00 0.00 0.00 29 929.3
20260506185711 75 0 0.0 0.0 0.00 0.00 0.00 28 929.4
20260506184210 75 0 0.0 0.0 0.00 0.00 0.00 28 929.0
20260506182711 75 0 0.0 0.0 0.00 0.00 0.00 30 928.5
20260506181211 73 0 0.0 0.0 0.00 0.00 0.00 32 927.7
20260506175711 75 0 0.0 0.0 0.00 0.00 0.00 42 928.3
20260506174211 75 0 0.0 0.0 0.00 0.00 0.00 43 928.4
20260506172711 75 0 0.0 0.0 0.00 0.00 0.00 43 928.4
20260506171211 75 0 0.0 0.0 0.00 0.00 0.00 43 928.2
20260506165710 75 0 0.0 0.0 0.00 0.00 0.00 42 928.0
20260506164211 75 0 0.0 0.0 0.00 0.00 0.00 43 927.9
20260506162710 75 0 0.0 0.0 0.00 0.00 0.00 44 928.2
20260506161210 73 0 0.0 0.0 0.00 0.00 0.00 45 928.3
20260506155710 72 0 0.0 0.0 0.00 0.00 0.00 47 928.3
20260506154211 72 0 0.0 0.0 0.00 0.00 0.00 48 928.6
20260506152711 70 0 0.0 0.0 0.00 0.00 0.00 48 929.1
20260506151210 70 0 0.0 0.0 0.00 0.00 0.00 48 929.8
20260506145710 70 0 0.0 0.0 0.00 0.00 0.00 49 929.9
20260506144211 70 0 0.0 0.0 0.00 0.00 0.00 48 930.2
20260506142710 68 0 0.0 0.0 0.00 0.00 0.00 50 930.3
20260506141210 68 0 0.0 0.0 0.00 0.00 0.00 52 930.5
20260506135710 66 0 0.0 0.0 0.00 0.00 0.00 52 930.7
20260506134210 66 0 0.0 0.0 0.00 0.00 0.00 52 930.7
20260506132711 66 0 0.0 0.0 0.00 0.00 0.00 52 930.6
20260506131210 66 0 0.0 0.0 0.00 0.00 0.00 52 930.9
20260506125711 66 0 0.0 0.0 0.00 0.00 0.00 53 930.7
20260506124211 64 0 0.0 0.0 0.00 0.00 0.00 54 931.1
20260506122710 63 0 0.0 0.0 0.00 0.00 0.00 54 931.1
20260506121211 63 0 0.0 0.0 0.00 0.00 0.00 54 931.2
20260506115710 61 0 0.0 0.0 0.00 0.00 0.00 54 931.3
20260506114210 61 0 0.0 0.0 0.00 0.00 0.00 54 931.3
20260506112710 59 0 0.0 0.0 0.00 0.00 0.00 54 931.0
20260506111211 61 0 0.0 0.0 0.00 0.00 0.00 53 931.1
20260506105710 61 0 0.0 0.0 0.00 0.00 0.00 53 931.1
20260506104210 61 0 0.0 0.0 0.00 0.00 0.00 53 930.9
20260506102710 61 0 0.0 0.0 0.00 0.00 0.00 53 931.1
20260506101210 61 0 0.0 0.0 0.00 0.00 0.00 53 931.2
20260506095710 61 0 0.0 0.0 0.00 0.00 0.00 53 931.3
20260506094210 61 0 0.0 0.0 0.00 0.00 0.00 54 931.1
20260506092710 63 0 0.0 0.0 0.00 0.00 0.00 55 931.2
20260506091210 61 0 0.0 0.0 0.00 0.00 0.00 52 931.2
20260506085710 61 0 0.0 0.0 0.00 0.00 0.00 52 931.2
20260506084210 61 0 0.0 0.0 0.00 0.00 0.00 52 931.4
20260506082709 61 0 0.0 0.0 0.00 0.00 0.00 52 931.7
20260506081210 61 0 0.0 0.0 0.00 0.00 0.00 52 931.7
20260506072710 61 0 0.0 0.0 0.00 0.00 0.00 52 932.6
20260506071210 61 0 0.0 0.0 0.00 0.00 0.00 52 932.8
20260506061209 61 0 0.0 0.0 0.00 0.00 0.00 53 933.0